DW1920 Weather Reports


time (UTC)temp
C
wind
direction
speed
KPH
gust
KPH
rain 1hr
cm
rain 24hr
cm
rain mn
cm
humidity
%
barometer
mb
20260506044023 8 200 33.8 38.6 0.00 0.00 0.00 89 1007.6
20260506043003 8 219 19.3 25.7 0.00 0.00 0.00 89 1007.7
20260506042003 8 252 11.3 20.9 0.00 0.00 0.00 89 1007.7
20260506041002 8 257 12.9 22.5 0.00 0.00 0.00 90 1007.6
20260506040003 8 249 11.3 19.3 0.00 0.00 0.00 90 1007.8
20260506035002 8 230 14.5 27.4 0.00 0.00 0.00 89 1007.8
20260506034003 8 225 16.1 20.9 0.00 0.00 0.00 89 1007.9
20260506033002 8 238 9.7 17.7 0.00 0.00 0.00 89 1007.8
20260506032024 8 239 8.0 19.3 0.00 0.00 0.00 89 1007.9
20260506031024 8 234 11.3 19.3 0.00 0.00 0.00 89 1008.0
20260506030002 8 231 9.7 19.3 0.00 0.00 0.00 89 1007.8
20260506025003 8 220 11.3 17.7 0.00 0.00 0.00 89 1007.8
20260506024002 8 227 9.7 17.7 0.00 0.00 0.00 88 1008.0
20260506023003 8 231 9.7 16.1 0.00 0.00 0.00 88 1008.1
20260506022002 8 244 4.8 16.1 0.00 0.00 0.00 88 1008.2
20260506021003 8 218 9.7 16.1 0.00 0.00 0.00 88 1008.1
20260506020003 8 226 14.5 19.3 0.00 0.00 0.00 87 1008.2
20260506015003 8 228 12.9 17.7 0.00 0.00 0.00 86 1008.2
20260506014003 9 230 9.7 19.3 0.00 0.00 0.00 86 1008.3
20260506013002 9 256 4.8 14.5 0.00 0.00 0.00 86 1008.2
20260506012003 9 237 8.0 16.1 0.00 0.00 0.00 86 1007.9
20260506011002 9 227 14.5 32.2 0.00 0.00 0.00 85 1008.0
20260506010024 10 210 25.7 41.8 0.00 0.00 0.00 83 1007.5
20260506005024 10 209 37.0 45.1 0.00 0.00 0.00 85 1007.3
20260506004003 10 201 32.2 37.0 0.00 0.00 0.00 86 1007.1
20260506003024 10 206 24.1 32.2 0.00 0.00 0.00 85 1006.9
20260506002003 10 240 12.9 29.0 0.00 0.00 0.00 84 1007.2
20260506001002 10 241 12.9 29.0 0.00 0.00 0.00 84 1007.1
20260506000003 10 251 12.9 37.0 0.00 0.00 0.00 84 1007.3
20260505235002 11 249 17.7 62.8 0.00 0.00 0.00 83 1007.0
20260505234045 10 214 41.8 56.3 0.00 0.00 0.00 85 1005.4
20260505233003 10 202 45.1 56.3 0.00 0.00 0.00 85 1004.7
20260505231003 10 202 48.3 59.5 0.00 0.00 0.00 84 1004.4
20260505230003 10 202 49.9 57.9 0.00 0.00 0.00 84 1004.2
20260505225003 10 201 49.9 59.5 0.00 0.00 0.00 84 1004.0
20260505224002 11 199 49.9 57.9 0.00 0.00 0.00 84 1003.8
20260505223003 11 198 51.5 62.8 0.00 0.00 0.00 83 1003.6
20260505222002 11 199 49.9 64.4 0.00 0.00 0.00 83 1003.6
20260505221003 11 198 49.9 62.8 0.00 0.00 0.00 83 1003.6
20260505220002 11 196 53.1 64.4 0.00 0.00 0.00 84 1003.5
20260505215003 11 196 51.5 61.2 0.00 0.00 0.00 84 1003.5
20260505214003 11 195 51.5 61.2 0.00 0.00 0.00 84 1003.7
20260505213003 11 195 48.3 59.5 0.00 0.00 0.00 83 1004.0
20260505212003 11 191 48.3 59.5 0.00 0.00 0.00 83 1003.7
20260505211003 11 195 48.3 57.9 0.00 0.00 0.00 83 1003.9
20260505210024 11 195 48.3 59.5 0.00 0.00 0.00 83 1003.9
20260505205003 11 194 45.1 54.7 0.00 0.00 0.00 83 1003.8
20260505204024 11 194 46.7 57.9 0.00 0.00 0.00 83 1003.8
20260505203002 11 195 48.3 56.3 0.00 0.00 0.00 83 1003.8
20260505202003 11 194 48.3 57.9 0.00 0.00 0.00 84 1003.9
20260505201002 11 192 48.3 57.9 0.00 0.00 0.00 84 1004.0
20260505200003 11 196 45.1 54.7 0.00 0.00 0.00 85 1004.2
20260505195002 11 195 45.1 53.1 0.00 0.00 0.00 85 1004.4
20260505194003 11 197 40.2 46.7 0.00 0.00 0.00 85 1004.4
20260505193003 11 194 37.0 46.7 0.00 0.00 0.00 84 1004.7
20260505192024 11 195 35.4 46.7 0.00 0.00 0.00 85 1005.0
20260505191003 11 198 38.6 43.5 0.00 0.00 0.00 84 1005.2
20260505190023 11 199 37.0 43.5 0.00 0.00 0.00 85 1005.2
20260505185024 11 206 32.2 40.2 0.00 0.00 0.00 84 1005.3
20260505184002 11 202 30.6 40.2 0.00 0.00 0.00 85 1005.4
20260505183003 11 198 33.8 41.8 0.00 0.00 0.00 85 1005.4
20260505182002 11 198 32.2 38.6 0.00 0.00 0.00 85 1005.4
20260505181003 11 198 32.2 37.0 0.00 0.00 0.00 85 1005.5
20260505180002 11 195 30.6 37.0 0.00 0.00 0.00 85 1005.7
20260505175024 11 193 27.4 33.8 0.00 0.00 0.00 85 1005.9
20260505174003 11 195 29.0 38.6 0.00 0.00 0.00 85 1006.3
20260505173024 11 193 33.8 38.6 0.00 0.00 0.00 85 1006.4
20260505172003 11 201 25.7 29.0 0.00 0.00 0.00 85 1006.5
20260505171045 11 202 24.1 32.2 0.00 0.00 0.00 85 1006.6
20260505170003 11 204 25.7 33.8 0.00 0.00 0.00 85 1006.7
20260505165002 11 207 19.3 24.1 0.00 0.00 0.00 85 1007.0
20260505164003 11 224 12.9 16.1 0.00 0.00 0.00 86 1007.3
20260505163003 11 236 6.4 14.5 0.00 0.00 0.00 86 1007.5
20260505162003 11 218 11.3 19.3 0.00 0.00 0.00 87 1007.6
20260505161003 11 227 11.3 19.3 0.00 0.00 0.00 87 1007.7
20260505153024 10 223 19.3 25.7 0.00 0.00 0.00 89 1008.0
20260505152003 9 212 20.9 32.2 0.00 0.00 0.00 88 1008.0
20260505151002 10 205 27.4 32.2 0.00 0.00 0.00 87 1007.7
20260505125003 9 209 12.9 17.7 0.00 0.00 0.00 90 1008.1
20260505124002 8 216 11.3 17.7 0.00 0.00 0.00 90 1008.0
20260505123003 8 211 12.9 17.7 0.00 0.00 0.00 90 1007.9
20260505122002 8 218 12.9 20.9 0.00 0.00 0.00 90 1007.9
20260505121003 8 221 16.1 19.3 0.00 0.00 0.00 90 1008.0
20260505120003 8 226 11.3 16.1 0.00 0.00 0.00 90 1008.1
20260505115003 8 221 12.9 16.1 0.00 0.00 0.00 90 1008.0
20260505114024 8 221 9.7 22.5 0.00 0.00 0.00 90 1008.2
20260505113003 8 222 14.5 29.0 0.00 0.00 0.00 90 1008.2
20260505112024 8 211 22.5 29.0 0.00 0.00 0.00 91 1008.3
20260505111002 7 230 8.0 16.1 0.00 0.00 0.00 91 1008.3
20260505102003 7 220 11.3 17.7 0.00 0.00 0.00 90 1007.9
20260505101003 7 226 12.9 19.3 0.00 0.00 0.00 90 1008.0
20260505100004 7 241 8.0 16.1 0.00 0.00 0.00 90 1007.9
20260505095003 7 241 6.4 17.7 0.00 0.00 0.00 90 1008.0
20260505094003 7 227 12.9 19.3 0.00 0.00 0.00 90 1008.0
20260505093003 7 244 8.0 16.1 0.00 0.00 0.00 90 1007.9
20260505092003 7 244 8.0 16.1 0.00 0.00 0.00 89 1007.7
20260505091003 7 250 9.7 16.1 0.00 0.00 0.00 90 1007.7
20260505090024 7 244 9.7 16.1 0.00 0.00 0.00 90 1007.9
20260505085003 7 242 9.7 16.1 0.00 0.00 0.00 89 1007.8
20260505084003 7 236 11.3 22.5 0.00 0.00 0.00 89 1007.9
20260505083002 7 246 8.0 16.1 0.00 0.00 0.00 89 1007.9
20260505082003 7 255 11.3 22.5 0.00 0.00 0.00 89 1008.0
20260505081003 7 258 14.5 22.5 0.00 0.00 0.00 89 1008.0
20260505080003 7 254 12.9 22.5 0.00 0.00 0.00 89 1008.0
20260505075003 7 252 8.0 16.1 0.00 0.00 0.00 89 1008.0
20260505074024 7 257 12.9 19.3 0.00 0.00 0.00 89 1007.8
20260505073003 7 256 8.0 16.1 0.00 0.00 0.00 88 1007.8
20260505072045 7 253 9.7 16.1 0.00 0.00 0.00 88 1007.8
20260505071024 7 241 11.3 16.1 0.00 0.00 0.00 88 1007.7
20260505070024 7 242 8.0 16.1 0.00 0.00 0.00 88 1007.7
20260505065003 8 254 11.3 19.3 0.00 0.00 0.00 88 1007.7
20260505064002 7 257 9.7 17.7 0.00 0.00 0.00 88 1007.7
20260505063003 7 248 8.0 14.5 0.00 0.00 0.00 88 1007.8
20260505062003 7 233 11.3 17.7 0.00 0.00 0.00 87 1007.8
20260505061002 8 246 9.7 16.1 0.00 0.00 0.00 87 1007.7
20260505060002 8 248 9.7 16.1 0.00 0.00 0.00 87 1007.7
20260505055003 8 250 8.0 16.1 0.00 0.00 0.00 86 1007.8
20260505054024 8 247 9.7 17.7 0.00 0.00 0.00 86 1007.8
20260505053003 8 248 9.7 17.7 0.00 0.00 0.00 85 1007.8
20260505052003 8 241 11.3 17.7 0.00 0.00 0.00 85 1007.7
20260505051023 8 252 12.9 19.3 0.00 0.00 0.00 85 1007.7